GW6315 Weather Reports


time (UTC)temp
C
wind
direction
speed
KPH
gust
KPH
rain 1hr
cm
rain 24hr
cm
rain mn
cm
humidity
%
barometer
mb
20260510015559 22 20 4.8 9.7 0.23 0.25 0.25 92 1013.4
20260510015056 23 67 6.4 9.7 0.18 0.18 0.18 93 1012.9
20260510014552 23 314 4.8 4.8 0.13 0.13 0.13 94 1012.7
20260510014049 23 335 0.0 3.2 0.13 0.13 0.13 93 1012.4
20260510013544 23 213 0.0 3.2 0.13 0.13 0.13 93 1012.3
20260510013040 23 323 1.6 3.2 0.13 0.13 0.13 93 1012.2
20260510012539 23 11 0.0 3.2 0.13 0.13 0.13 93 1011.9
20260510012036 23 44 0.0 3.2 0.10 0.10 0.10 92 1011.7
20260510011536 23 113 3.2 4.8 0.10 0.10 0.10 92 1011.8
20260510011032 23 9 1.6 6.4 0.10 0.10 0.10 91 1011.7
20260510010529 23 115 1.6 9.7 0.08 0.08 0.08 90 1011.4
20260510010026 24 167 4.8 6.4 0.05 0.05 0.05 90 1011.4
20260510005521 24 147 3.2 9.7 0.03 0.03 0.03 89 1011.5
20260510005019 24 31 1.6 6.4 0.00 0.00 0.00 88 1011.3
20260510004516 25 227 3.2 9.7 0.00 0.00 0.00 87 1011.0
20260510004015 25 1 0.0 9.7 0.00 0.00 0.00 85 1011.0
20260510003511 25 161 6.4 14.5 0.00 0.00 0.00 85 1011.0
20260510003006 25 148 8.0 8.0 0.00 0.00 0.00 85 1010.7
20260510002502 25 158 1.6 11.3 0.00 0.00 0.00 85 1010.6
20260510001959 25 180 6.4 6.4 0.00 0.00 0.00 86 1010.3
20260510001456 25 163 4.8 4.8 0.00 0.00 0.00 87 1009.8
20260510000954 25 42 1.6 6.4 0.00 0.00 0.00 87 1010.3
20260510000449 25 153 3.2 4.8 0.00 0.00 0.00 87 1009.8
20260509235947 25 170 0.0 4.8 0.00 0.00 0.00 87 1009.9
20260509235443 24 356 1.6 4.8 0.00 0.00 0.00 87 1009.7
20260509234940 24 356 0.0 4.8 0.00 0.00 0.00 87 1009.6
20260509234436 25 170 3.2 9.7 0.00 0.00 0.00 87 1009.4
20260509233934 25 157 6.4 8.0 0.00 0.00 0.00 87 1009.4
20260509233432 25 201 4.8 9.7 0.00 0.00 0.00 86 1009.4
20260509232927 25 159 1.6 8.0 0.00 0.00 0.00 85 1009.5
20260509232426 25 134 3.2 12.9 0.00 0.00 0.00 84 1009.2
20260509231921 25 161 3.2 8.0 0.00 0.00 0.00 84 1009.5
20260509231418 25 170 11.3 17.7 0.00 0.00 0.00 83 1009.6
20260509230916 25 149 6.4 14.5 0.00 0.00 0.00 84 1009.5
20260509230413 25 9 3.2 6.4 0.00 0.00 0.00 84 1009.1
20260509225908 25 43 3.2 3.2 0.00 0.00 0.00 84 1009.4
20260509225405 25 8 3.2 6.4 0.00 0.00 0.00 83 1009.6
20260509224901 25 62 3.2 6.4 0.00 0.00 0.00 83 1009.4
20260509224351 25 151 4.8 8.0 0.00 0.00 0.00 80 1009.4
20260509223849 25 181 6.4 9.7 0.00 0.00 0.00 78 1009.5
20260509223345 25 113 4.8 9.7 0.00 0.00 0.00 77 1009.3
20260509222842 25 181 8.0 9.7 0.00 0.00 0.00 80 1009.2
20260509222337 26 92 1.6 8.0 0.00 0.00 0.00 81 1009.0
20260509221833 25 114 1.6 6.4 0.00 0.00 0.00 83 1009.1
20260509221331 26 132 8.0 11.3 0.00 0.00 0.00 83 1009.1
20260509220830 25 111 3.2 12.9 0.00 0.00 0.00 84 1008.7
20260509220327 26 202 4.8 6.4 0.00 0.00 0.00 83 1008.6
20260509215822 26 151 4.8 16.1 0.00 0.00 0.00 82 1008.6
20260509215320 26 29 1.6 8.0 0.00 0.00 0.00 81 1008.4
20260509214816 27 22 3.2 9.7 0.00 0.00 0.00 80 1008.5
20260509214313 27 143 4.8 16.1 0.00 0.00 0.00 79 1008.7
20260509213811 27 168 3.2 4.8 0.00 0.00 0.00 79 1008.7
20260509213306 28 70 4.8 8.0 0.00 0.00 0.00 76 1008.4
20260509212804 28 36 4.8 4.8 0.00 0.00 0.00 74 1008.3
20260509212301 29 230 3.2 9.7 0.00 0.00 0.00 71 1008.0
20260509211756 31 190 3.2 9.7 0.00 0.00 0.00 65 1008.3
20260509211253 31 222 0.0 4.8 0.00 0.00 0.00 62 1008.1
20260509210749 31 339 3.2 6.4 0.00 0.00 0.00 62 1008.4
20260509210248 31 228 3.2 6.4 0.00 0.00 0.00 61 1008.5
20260509205747 31 330 3.2 4.8 0.00 0.00 0.00 63 1008.3
20260509205242 31 305 3.2 3.2 0.00 0.00 0.00 62 1008.4
20260509204738 31 270 3.2 6.4 0.00 0.00 0.00 62 1008.4
20260509204234 31 337 3.2 4.8 0.00 0.00 0.00 62 1008.4
20260509203730 31 315 1.6 3.2 0.00 0.00 0.00 63 1008.1
20260509203229 30 350 3.2 4.8 0.00 0.00 0.00 63 1008.3
20260509202724 31 324 4.8 6.4 0.00 0.00 0.00 64 1008.3
20260509202220 30 63 3.2 4.8 0.00 0.00 0.00 67 1008.4
20260509201715 30 319 3.2 4.8 0.00 0.00 0.00 66 1008.3
20260509201212 31 336 4.8 6.4 0.00 0.00 0.00 63 1008.5
20260509200708 31 3 1.6 4.8 0.00 0.00 0.00 68 1008.5
20260509200203 30 24 3.2 9.7 0.00 0.00 0.00 67 1008.9
20260509195659 30 324 3.2 4.8 0.00 0.00 0.00 68 1009.1
20260509195155 29 215 1.6 3.2 0.00 0.00 0.00 70 1008.8
20260509194654 29 199 4.8 4.8 0.00 0.00 0.00 70 1009.1
20260509194152 30 285 3.2 6.4 0.00 0.00 0.00 70 1009.1
20260509193647 30 256 3.2 6.4 0.00 0.00 0.00 70 1009.4
20260509193143 30 210 3.2 8.0 0.00 0.00 0.00 68 1009.2
20260509192640 29 232 3.2 3.2 0.00 0.00 0.00 71 1009.1
20260509192135 29 287 3.2 11.3 0.00 0.00 0.00 72 1009.2
20260509191635 29 212 3.2 4.8 0.00 0.00 0.00 75 1009.1
20260509191132 28 197 3.2 6.4 0.00 0.00 0.00 77 1009.6
20260509190629 28 42 3.2 4.8 0.00 0.00 0.00 76 1009.4
20260509190126 27 286 3.2 3.2 0.00 0.00 0.00 74 1009.4
20260509185623 28 76 0.0 6.4 0.00 0.00 0.00 77 1009.7
20260509185119 28 14 3.2 6.4 0.00 0.00 0.00 77 1009.9
20260509184618 28 336 3.2 3.2 0.00 0.00 0.00 79 1010.0
20260509184114 28 349 3.2 4.8 0.00 0.00 0.00 79 1009.7
20260509183610 28 35 3.2 3.2 0.00 0.00 0.00 80 1009.8
20260509183105 28 314 0.0 4.8 0.00 0.00 0.00 78 1009.8
20260509182602 28 324 0.0 3.2 0.00 0.00 0.00 80 1009.8
20260509182058 28 344 3.2 8.0 0.00 0.00 0.00 77 1009.7
20260509181557 28 327 1.6 4.8 0.00 0.00 0.00 77 1010.1
20260509181054 28 259 3.2 3.2 0.00 0.00 0.00 78 1010.1
20260509180550 27 275 0.0 4.8 0.00 0.00 0.00 78 1010.0
20260509180047 27 124 0.0 4.8 0.00 0.00 0.00 78 1010.3
20260509175542 27 137 0.0 3.2 0.00 0.00 0.00 78 1010.4
20260509175040 27 258 1.6 3.2 0.00 0.00 0.00 79 1010.6
20260509174536 27 198 0.0 3.2 0.00 0.00 0.00 79 1010.6
20260509174032 27 317 1.6 4.8 0.00 0.00 0.00 79 1010.6
20260509173526 27 218 0.0 3.2 0.00 0.00 0.00 80 1010.8
20260509173022 27 245 0.0 4.8 0.00 0.00 0.00 80 1010.8
20260509172520 27 200 3.2 4.8 0.00 0.00 0.00 80 1011.0
20260509172015 27 215 3.2 3.2 0.00 0.00 0.00 80 1011.0
20260509171512 27 104 0.0 3.2 0.00 0.00 0.00 82 1010.9
20260509171008 27 28 3.2 6.4 0.00 0.00 0.00 81 1010.5
20260509170504 28 337 0.0 4.8 0.00 0.00 0.00 80 1010.7
20260509165959 28 30 4.8 6.4 0.00 0.00 0.00 79 1010.7
20260509165458 27 256 3.2 4.8 0.00 0.00 0.00 78 1010.5
20260509164955 27 27 1.6 3.2 0.00 0.00 0.00 80 1010.6
20260509164450 27 179 3.2 4.8 0.00 0.00 0.00 80 1010.4
20260509163946 27 71 3.2 3.2 0.00 0.00 0.00 82 1010.7
20260509163444 27 49 0.0 3.2 0.00 0.00 0.00 82 1010.7
20260509162943 27 354 0.0 3.2 0.00 0.00 0.00 82 1010.7
20260509162443 27 58 1.6 3.2 0.00 0.00 0.00 81 1010.8
20260509161938 27 15 3.2 3.2 0.00 0.00 0.00 83 1011.0
20260509161434 27 219 4.8 6.4 0.00 0.00 0.00 84 1010.9
20260509160930 26 338 3.2 4.8 0.00 0.00 0.00 86 1010.8
20260509160425 26 308 1.6 3.2 0.00 0.00 0.00 86 1011.0
20260509155921 26 102 0.0 3.2 0.00 0.00 0.00 87 1011.0
20260509155418 26 280 0.0 4.8 0.00 0.00 0.00 87 1010.9
20260509154914 26 286 0.0 4.8 0.00 0.00 0.00 89 1011.3
20260509154411 26 154 1.6 3.2 0.00 0.00 0.00 89 1010.9
20260509153907 25 182 1.6 4.8 0.00 0.00 0.00 89 1010.8
20260509153405 25 221 3.2 6.4 0.00 0.00 0.00 89 1010.9
20260509152902 25 247 0.0 3.2 0.00 0.00 0.00 91 1011.0
20260509152357 25 187 0.0 6.4 0.00 0.00 0.00 90 1011.0
20260509151855 25 28 0.0 3.2 0.00 0.00 0.00 91 1010.9
20260509151350 25 262 3.2 6.4 0.00 0.00 0.00 92 1010.5
20260509150849 25 286 3.2 3.2 0.00 0.00 0.00 93 1010.7
20260509150347 25 287 0.0 4.8 0.00 0.00 0.00 93 1010.5
20260509145844 25 233 4.8 6.4 0.00 0.00 0.00 94 1010.7
20260509145344 24 208 4.8 4.8 0.00 0.00 0.00 95 1010.8
20260509144841 24 221 3.2 4.8 0.00 0.00 0.00 95 1010.9
20260509144338 24 170 3.2 3.2 0.00 0.00 0.00 96 1010.9
20260509143835 24 14 0.0 3.2 0.00 0.00 0.00 97 1011.1
20260509143332 24 326 3.2 4.8 0.00 0.00 0.00 97 1010.7
20260509142828 24 181 0.0 3.2 0.00 0.00 0.00 97 1010.6
20260509142325 24 355 3.2 3.2 0.00 0.00 0.00 98 1010.5
20260509141820 24 298 0.0 4.8 0.00 0.00 0.00 98 1010.7
20260509141318 24 319 4.8 6.4 0.00 0.00 0.00 98 1010.6
20260509140814 24 38 3.2 6.4 0.00 0.00 0.00 98 1010.7
20260509140311 23 47 3.2 3.2 0.00 0.00 0.00 99 1010.6
20260509135809 23 41 3.2 3.2 0.00 0.00 0.00 98 1010.7
20260509135306 23 326 3.2 4.8 0.00 0.00 0.00 99 1010.5
20260509134803 23 349 3.2 4.8 0.00 0.00 0.00 99 1010.6
20260509134301 23 1 1.6 3.2 0.00 0.00 0.00 99 1010.3
20260509133757 23 339 3.2 3.2 0.00 0.00 0.00 99 1010.4
20260509133254 23 17 3.2 4.8 0.00 0.00 0.00 99 1010.4
20260509132753 23 316 3.2 4.8 0.00 0.00 0.00 99 1010.7
20260509132251 23 319 3.2 3.2 0.00 0.00 0.00 99 1010.9
20260509131747 22 316 1.6 3.2 0.00 0.00 0.00 99 1011.0
20260509131244 22 324 4.8 4.8 0.00 0.00 0.00 99 1011.2
20260509130740 23 39 3.2 3.2 0.00 0.00 0.00 99 1010.7
20260509130236 23 29 0.0 3.2 0.00 0.00 0.00 99 1010.7
20260509125733 22 318 1.6 3.2 0.00 0.00 0.00 99 1010.7
20260509125230 22 305 0.0 3.2 0.00 0.00 0.00 99 1010.9
20260509124726 22 348 0.0 3.2 0.00 0.00 0.00 99 1010.5
20260509124223 22 348 1.6 3.2 0.00 0.00 0.00 99 1010.8
20260509123721 22 282 3.2 3.2 0.00 0.00 0.00 99 1010.8
20260509123218 22 296 3.2 3.2 0.00 0.00 0.00 98 1010.5
20260509122713 22 278 0.0 3.2 0.00 0.00 0.00 98 1010.5
20260509122211 22 9 0.0 3.2 0.00 0.00 0.00 98 1010.6
20260509121707 22 18 0.0 3.2 0.00 0.00 0.00 98 1010.6
20260509121205 22 311 1.6 3.2 0.00 0.00 0.00 98 1010.5
20260509120703 22 256 1.6 3.2 0.00 0.00 0.00 98 1010.6
20260509120201 22 7 1.6 4.8 0.00 0.00 0.00 98 1010.5
20260509115658 22 340 1.6 3.2 0.00 0.00 0.00 98 1010.6
20260509115155 22 315 0.0 3.2 0.00 0.00 0.00 98 1010.3
20260509114653 22 283 0.0 3.2 0.00 0.00 0.00 98 1010.2
20260509114152 22 131 0.0 3.2 0.00 0.00 0.00 98 1010.4
20260509113650 22 317 1.6 4.8 0.00 0.00 0.00 98 1010.6
20260509113147 22 270 0.0 3.2 0.00 0.00 0.00 98 1010.3
20260509112643 22 293 4.8 6.4 0.00 0.00 0.00 98 1010.2
20260509112141 22 296 0.0 3.2 0.00 0.00 0.00 98 1010.2
20260509111638 22 311 0.0 3.2 0.00 0.00 0.00 98 1010.5
20260509111134 22 316 3.2 3.2 0.00 0.00 0.00 98 1010.5
20260509110632 22 325 1.6 3.2 0.00 0.00 0.00 98 1010.8
20260509110129 22 331 0.0 3.2 0.00 0.00 0.00 98 1010.7
20260509105627 22 345 0.0 3.2 0.00 0.00 0.00 98 1010.9
20260509105124 22 327 0.0 3.2 0.00 0.00 0.00 98 1010.7
20260509104621 22 1 0.0 1.6 0.00 0.00 0.00 98 1010.5
20260509104117 22 306 1.6 3.2 0.00 0.00 0.00 98 1010.6
20260509103616 22 327 1.6 3.2 0.00 0.00 0.00 98 1010.4
20260509103113 22 7 3.2 3.2 0.00 0.00 0.00 98 1009.8
20260509102610 22 339 3.2 3.2 0.00 0.00 0.00 98 1009.9
20260509102107 22 21 1.6 3.2 0.00 0.00 0.00 98 1010.0
20260509101603 22 351 1.6 3.2 0.00 0.00 0.00 98 1010.0
20260509101100 22 346 1.6 3.2 0.00 0.00 0.00 98 1010.0
20260509100557 22 344 0.0 3.2 0.00 0.00 0.00 98 1009.9
20260509100055 22 29 0.0 3.2 0.00 0.00 0.00 98 1009.6
20260509095551 22 326 3.2 3.2 0.00 0.00 0.00 98 1009.9
20260509095049 22 352 0.0 3.2 0.00 0.00 0.00 98 1009.7
20260509094545 22 311 1.6 3.2 0.00 0.00 0.00 98 1009.8
20260509094042 22 313 0.0 3.2 0.00 0.00 0.00 98 1009.5
20260509093541 23 311 0.0 3.2 0.00 0.00 0.00 98 1009.3
20260509093038 23 293 1.6 3.2 0.00 0.00 0.00 98 1009.2
20260509092536 22 306 3.2 3.2 0.00 0.00 0.00 98 1009.6
20260509092034 22 323 1.6 3.2 0.00 0.00 0.00 98 1009.2
20260509091531 22 288 1.6 3.2 0.00 0.00 0.00 98 1009.2
20260509091028 23 292 0.0 3.2 0.00 0.00 0.00 98 1009.6
20260509090525 23 281 1.6 3.2 0.00 0.00 0.00 98 1009.2
20260509090023 23 210 0.0 3.2 0.00 0.00 0.00 98 1009.4
20260509085519 23 319 0.0 1.6 0.00 0.00 0.00 98 1009.3
20260509085015 23 299 1.6 3.2 0.00 0.00 0.00 98 1009.7
20260509084513 23 281 1.6 3.2 0.00 0.00 0.00 98 1009.7
20260509084010 23 283 1.6 3.2 0.00 0.00 0.00 98 1009.8
20260509083507 23 276 1.6 3.2 0.00 0.00 0.00 98 1010.0
20260509083004 23 281 1.6 4.8 0.00 0.00 0.00 98 1009.9
20260509082501 23 250 1.6 3.2 0.00 0.00 0.00 98 1010.3
20260509081958 23 281 0.0 1.6 0.00 0.00 0.00 98 1010.4
20260509081455 23 312 0.0 3.2 0.00 0.00 0.00 98 1010.7
20260509080952 23 342 1.6 3.2 0.00 0.00 0.00 98 1010.5
20260509080450 23 56 0.0 3.2 0.00 0.00 0.00 98 1010.2
20260509075948 23 1 0.0 3.2 0.00 0.00 0.00 98 1010.2
20260509075445 23 320 1.6 3.2 0.00 0.00 0.00 98 1010.4
20260509074943 23 308 1.6 3.2 0.00 0.00 0.00 98 1010.4
20260509074440 23 304 1.6 3.2 0.00 0.00 0.00 98 1010.4
20260509073936 23 274 0.0 3.2 0.00 0.00 0.00 98 1010.3
20260509073433 23 298 1.6 3.2 0.00 0.00 0.00 98 1010.3
20260509072929 23 290 0.0 3.2 0.00 0.00 0.00 98 1010.2
20260509072426 23 324 1.6 3.2 0.00 0.00 0.00 98 1010.1
20260509071922 23 301 1.6 3.2 0.00 0.00 0.00 98 1010.1
20260509071419 23 298 3.2 3.2 0.00 0.00 0.00 98 1010.1
20260509070917 23 281 0.0 3.2 0.00 0.00 0.00 98 1010.0
20260509070414 23 299 0.0 3.2 0.00 0.00 0.00 98 1010.1
20260509065909 23 283 0.0 3.2 0.00 0.00 0.00 98 1010.2
20260509065406 23 331 0.0 3.2 0.00 0.00 0.00 98 1010.4
20260509064902 23 314 1.6 3.2 0.00 0.00 0.00 98 1009.9
20260509064400 23 297 1.6 3.2 0.00 0.00 0.00 98 1010.2
20260509063857 23 317 1.6 3.2 0.00 0.00 0.00 98 1010.3
20260509063353 23 305 0.0 3.2 0.00 0.00 0.00 98 1010.4
20260509062850 23 254 3.2 3.2 0.00 0.00 0.00 98 1010.0
20260509062347 23 286 0.0 3.2 0.00 0.00 0.00 98 1010.2
20260509061844 23 287 0.0 3.2 0.00 0.00 0.00 98 1010.5
20260509061343 23 263 0.0 3.2 0.00 0.00 0.00 98 1010.6
20260509060839 23 314 0.0 3.2 0.00 0.00 0.00 98 1010.7
20260509060336 22 300 0.0 1.6 0.00 0.00 0.00 98 1011.0
20260509055831 22 324 0.0 3.2 0.00 0.00 0.00 98 1011.0
20260509055327 22 297 1.6 3.2 0.00 0.00 0.00 98 1011.0
20260509054824 22 256 0.0 3.2 0.00 0.00 0.00 98 1011.0
20260509054321 22 330 0.0 3.2 0.00 0.00 0.00 98 1010.8
20260509053819 22 314 0.0 3.2 0.00 0.00 0.00 98 1010.9
20260509053316 22 287 1.6 3.2 0.00 0.00 0.00 98 1011.0
20260509052814 22 292 0.0 3.2 0.00 0.00 0.00 98 1010.6
20260509052312 22 267 0.0 1.6 0.00 0.00 0.00 98 1010.7
20260509051809 22 347 0.0 3.2 0.00 0.00 0.00 98 1010.8
20260509051307 22 223 0.0 3.2 0.00 0.00 0.00 98 1010.8
20260509050803 22 331 0.0 3.2 0.00 0.00 0.00 98 1010.7
20260509050300 22 318 0.0 3.2 0.00 0.00 0.00 98 1010.8
20260509045757 22 320 0.0 3.2 0.00 2.08 2.08 98 1010.7
20260509045254 22 307 0.0 3.2 0.00 2.08 2.08 98 1011.0
20260509044751 22 175 0.0 1.6 0.00 2.08 2.08 98 1011.1
20260509044249 22 184 0.0 3.2 0.00 2.08 2.08 98 1011.1
20260509043745 22 188 4.8 6.4 0.00 2.08 2.08 98 1011.2
20260509043241 22 272 1.6 3.2 0.00 2.08 2.08 98 1011.0
20260509042737 22 337 0.0 3.2 0.00 2.08 2.08 98 1010.5
20260509042233 22 30 0.0 3.2 0.00 2.08 2.08 98 1011.0
20260509041731 22 29 0.0 6.4 0.00 2.08 2.08 98 1011.1
20260509041228 22 219 1.6 4.8 0.00 2.08 2.08 98 1011.1
20260509040726 22 340 1.6 3.2 0.00 2.08 2.08 98 1011.0
20260509040222 22 311 0.0 3.2 0.00 2.08 2.08 98 1010.6
20260509035719 22 259 0.0 3.2 0.00 2.08 2.08 98 1010.8
20260509035216 22 337 0.0 3.2 0.00 2.08 2.08 98 1010.9
20260509034713 22 317 1.6 4.8 0.00 2.08 2.08 98 1010.7
20260509034211 22 278 3.2 3.2 0.00 2.08 2.08 98 1010.5
20260509033708 22 168 3.2 3.2 0.00 2.08 2.08 98 1010.7
20260509033205 22 262 1.6 3.2 0.00 2.08 2.08 98 1011.1
20260509032702 22 353 0.0 3.2 0.00 2.08 2.08 98 1010.9
20260509032159 22 331 1.6 3.2 0.00 2.08 2.08 98 1010.8
20260509031656 22 344 0.0 3.2 0.00 2.08 2.08 97 1010.6
20260509031153 22 353 0.0 3.2 0.00 2.08 2.08 97 1010.8
20260509030652 22 308 1.6 3.2 0.00 2.08 2.08 97 1010.6
20260509030149 22 358 1.6 3.2 0.00 2.08 2.08 97 1010.8
20260509025644 22 336 0.0 3.2 0.00 2.08 2.08 97 1010.9
20260509025141 22 288 0.0 3.2 0.00 2.08 2.08 97 1010.8
20260509024636 22 315 0.0 3.2 0.00 2.08 2.08 97 1011.0
20260509024132 22 357 1.6 3.2 0.00 2.08 2.08 97 1010.6
20260509023631 22 35 1.6 3.2 0.00 2.08 2.08 97 1010.3
20260509023127 22 10 1.6 3.2 0.00 2.08 2.08 97 1010.7
20260509022623 22 294 0.0 1.6 0.00 2.08 2.08 97 1010.5
20260509022121 22 324 1.6 3.2 0.00 2.08 2.08 97 1010.8
20260509021618 22 312 1.6 3.2 0.00 2.08 2.08 97 1010.8
20260509021115 22 313 0.0 3.2 0.00 2.08 2.08 97 1010.5
20260509020613 22 356 1.6 3.2 0.00 2.08 2.08 97 1010.2